Oscoda, MI

2:02 AM EDT on September 30, 2016 (GMT -0400)
Oscoda-Wurtsmith

Weather History for KOSC - November, 2013

Change the Weather History Date:

Friday, November 22, 2013

  Actual Average Record
Temperature  
Mean Temperature 30 °F -  
Max Temperature 40 °F 41 °F 62 °F (2010)
Min Temperature 19 °F 28 °F 11 °F (2015)
Degree Days  
Heating Degree Days 36    
Moisture  
Dew Point 31 °F    
Average Humidity 89    
Maximum Humidity 98    
Minimum Humidity 73    
Precipitation  
Precipitation 0.01 in - - ()
Sea Level Pressure  
Sea Level Pressure 30.21 in    
Wind  
Wind Speed 5 mph (NW)    
Max Wind Speed 21 mph    
Max Gust Speed 30 mph    
Visibility 8 miles    
Events Rain , Snow    
Averages and records for this station are not official NWS values.
T = Trace of Precipitation, MM = Missing Value Source: NWS Daily Summary

Daily Weather History Graph

Daily Weather History Graph

Search for Another Location

Airport or City:

Trip Planner

Search our weather history database for the weather conditions in past years. The results will help you decide how hot, cold, wet, or windy it might be!

Date:

Astronomy

Nov. 22, 2013 Rise Set
Actual Time 7:39 AM EST 5:00 PM EST
Civil Twilight 7:07 AM EST 5:32 PM EST
Nautical Twilight 6:31 AM EST 6:07 PM EST
Astronomical Twilight 5:56 AM EST 6:42 PM EST
Moon 9:34 PM EST (11/22) 11:19 AM EST (11/22)
Length of Visible Light 10h 24m
Length of Day
9h 20m
Waning Gibbous, 78% of the Moon is Illuminated
Nov 22
Waning Gibbous
Nov 25
Last Quarter
Dec 2
New
Dec 9
First Quarter
Dec 17
Full

Hourly Weather History & Observations

Time (EST) Temp. Windchill Dew Point Humidity Pressure Visibility Wind Dir Wind Speed Gust Speed Precip Events Conditions
12:14 AM 40.5 °F - 39.2 °F 95% 30.16 in 7.0 mi Calm Calm - N/A Rain Light Rain
12:34 AM 40.5 °F - 39.6 °F 97% 30.15 in 7.0 mi Calm Calm - N/A Rain Light Rain
12:54 AM 40.5 °F - 39.6 °F 97% 30.14 in 5.0 mi Calm Calm - N/A Rain Light Rain
1:14 AM 40.1 °F - 39.4 °F 97% 30.14 in 5.0 mi Calm Calm - N/A Rain Light Rain
1:34 AM 40.1 °F - 39.2 °F 97% 30.13 in 4.0 mi Calm Calm - N/A Rain Light Rain
1:54 AM 39.6 °F - 38.8 °F 97% 30.13 in 4.0 mi Calm Calm - N/A   Light Drizzle
2:14 AM 39.7 °F - 39.2 °F 98% 30.13 in 4.0 mi Calm Calm - N/A   Light Drizzle
2:34 AM 39.7 °F - 39.2 °F 98% 30.13 in 4.0 mi Calm Calm - N/A Rain Light Rain
2:54 AM 39.4 °F - 38.8 °F 98% 30.12 in 4.0 mi Calm Calm - N/A   Light Drizzle
3:14 AM 39.7 °F - 39.2 °F 98% 30.13 in 3.0 mi Calm Calm - N/A   Overcast
3:34 AM 39.7 °F - 39.2 °F 98% 30.13 in 3.0 mi Calm Calm - N/A   Overcast
3:54 AM 39.9 °F - 39.2 °F 97% 30.13 in 3.0 mi Calm Calm - N/A   Overcast
4:14 AM 39.7 °F - 39.2 °F 98% 30.13 in 3.0 mi Calm Calm - N/A   Overcast
4:34 AM 39.7 °F - 39.2 °F 98% 30.13 in 3.0 mi Calm Calm - N/A   Light Drizzle
4:54 AM 40.1 °F - 39.6 °F 98% 30.13 in 3.0 mi Calm Calm - N/A   Overcast
5:14 AM 40.3 °F - 39.6 °F 97% 30.13 in 4.0 mi Calm Calm - N/A   Overcast
5:34 AM 40.1 °F - 39.4 °F 97% 30.13 in 3.0 mi Calm Calm - N/A   Overcast
5:54 AM 40.3 °F 38.2 °F 39.6 °F 97% 30.12 in 4.0 mi NNW 3.5 mph - N/A   Overcast
6:14 AM 40.3 °F 37.1 °F 39.6 °F 97% 30.12 in 2.0 mi NW 4.6 mph - N/A Rain Light Rain
6:34 AM 40.5 °F 36.5 °F 39.7 °F 97% 30.13 in 2.0 mi NW 5.8 mph - N/A Rain Light Rain
6:54 AM 40.5 °F 35.1 °F 39.7 °F 97% 30.13 in 3.0 mi NW 8.1 mph - N/A   Overcast
7:13 AM 40.3 °F 34.4 °F 39.4 °F 97% 30.13 in 4.0 mi NNW 9.2 mph - N/A   Overcast
7:34 AM 40.1 °F 35.3 °F 38.8 °F 95% 30.13 in 10.0 mi NW 6.9 mph - N/A   Overcast
7:54 AM 39.7 °F 33.7 °F 38.3 °F 95% 30.14 in 10.0 mi NW 9.2 mph - N/A   Overcast
8:13 AM 39.4 °F 31.8 °F 37.6 °F 93% 30.14 in 10.0 mi NNW 12.7 mph - N/A   Overcast
8:34 AM 38.8 °F 32.6 °F 37.4 °F 95% 30.15 in 5.0 mi NW 9.2 mph - N/A   Overcast
8:54 AM 37.9 °F 30.0 °F 36.5 °F 95% 30.16 in 10.0 mi NW 12.7 mph 17.3 mph N/A   Overcast
9:13 AM 37.4 °F 29.8 °F 34.9 °F 91% 30.16 in 10.0 mi NNW 11.5 mph 18.4 mph N/A   Light Drizzle
9:34 AM 36.7 °F 30.5 °F 34.7 °F 93% 30.16 in 10.0 mi NW 8.1 mph - N/A Rain Light Rain
9:54 AM 36.5 °F 28.7 °F 34.2 °F 91% 30.16 in 10.0 mi NW 11.5 mph 16.1 mph N/A   Overcast
10:13 AM 36.3 °F 28.9 °F 33.8 °F 91% 30.17 in 7.0 mi NW 10.4 mph 17.3 mph N/A Rain Light Rain
10:34 AM 35.6 °F 26.6 °F 33.4 °F 92% 30.18 in 10.0 mi NW 13.8 mph 21.9 mph N/A Rain Light Rain
10:54 AM 34.7 °F 26.4 °F 32.9 °F 93% 30.18 in 1.2 mi NW 11.5 mph - 0.01 in Snow Light Snow
11:13 AM 34.7 °F 25.9 °F 33.1 °F 94% 30.18 in 5.0 mi WNW 12.7 mph 17.3 mph N/A Snow Light Snow
11:34 AM 34.3 °F 24.2 °F 32.2 °F 92% 30.18 in 4.0 mi NW 16.1 mph 23.0 mph N/A Snow Light Snow
11:54 AM 34.0 °F 24.6 °F 32.0 °F 92% 30.19 in 4.0 mi WNW 13.8 mph 21.9 mph N/A Snow Light Snow
12:13 PM 34.0 °F 24.2 °F 32.0 °F 92% 30.19 in 5.0 mi NW 15.0 mph 19.6 mph N/A Snow Light Snow
12:34 PM 34.0 °F 23.4 °F 31.5 °F 90% 30.19 in 7.0 mi NW 17.3 mph 27.6 mph N/A Snow Light Snow
12:54 PM 34.2 °F 22.6 °F 30.9 °F 88% 30.20 in 10.0 mi NW 20.7 mph 29.9 mph N/A   Overcast
1:13 PM 34.3 °F 23.5 °F 30.9 °F 87% 30.20 in 10.0 mi NW 18.4 mph 25.3 mph N/A   Overcast
1:34 PM 34.3 °F 23.9 °F 30.6 °F 86% 30.21 in 10.0 mi NW 17.3 mph 24.2 mph N/A   Overcast
1:54 PM 34.3 °F 25.0 °F 29.8 °F 84% 30.21 in 10.0 mi NW 13.8 mph 24.2 mph N/A   Overcast
2:13 PM 34.5 °F 23.1 °F 29.5 °F 82% 30.21 in 10.0 mi NW 20.7 mph 26.5 mph N/A   Overcast
2:34 PM 34.9 °F 24.6 °F 29.1 °F 79% 30.22 in 10.0 mi NNW 17.3 mph 25.3 mph N/A   Overcast
2:54 PM 35.8 °F 25.7 °F 28.9 °F 76% 30.22 in 10.0 mi NW 17.3 mph 24.2 mph N/A   Overcast
3:13 PM 36.1 °F 26.5 °F 28.8 °F 75% 30.22 in 10.0 mi NNW 16.1 mph 20.7 mph N/A   Mostly Cloudy
3:34 PM 35.2 °F 25.0 °F 27.5 °F 73% 30.24 in 10.0 mi NW 17.3 mph 29.9 mph N/A   Overcast
3:54 PM 34.7 °F 23.7 °F 27.7 °F 76% 30.25 in 10.0 mi NW 19.6 mph 24.2 mph N/A   Overcast
4:14 PM 34.2 °F 24.4 °F 26.6 °F 74% 30.26 in 10.0 mi NW 15.0 mph - N/A   Overcast
4:34 PM 33.8 °F 24.3 °F 26.4 °F 74% 30.27 in 10.0 mi NW 13.8 mph 20.7 mph N/A   Mostly Cloudy
4:54 PM 32.9 °F 23.7 °F 26.1 °F 76% 30.28 in 10.0 mi NW 12.7 mph 18.4 mph N/A   Scattered Clouds
5:14 PM 32.0 °F 24.2 °F 25.5 °F 77% 30.29 in 10.0 mi NW 9.2 mph - N/A   Clear
5:34 PM 31.5 °F 22.3 °F 24.8 °F 76% 30.30 in 10.0 mi NW 11.5 mph - N/A   Clear
5:53 PM 30.7 °F 24.1 °F 24.8 °F 79% 30.31 in 10.0 mi NW 6.9 mph - N/A   Clear
6:14 PM 30.2 °F 23.4 °F 24.3 °F 79% 30.31 in 10.0 mi NNW 6.9 mph - N/A   Clear
6:34 PM 29.5 °F 21.8 °F 23.9 °F 80% 30.31 in 10.0 mi NW 8.1 mph - N/A   Clear
6:53 PM 28.9 °F 21.1 °F 23.5 °F 80% 30.30 in 10.0 mi NW 8.1 mph - N/A   Clear
7:14 PM 28.9 °F 21.9 °F 23.0 °F 78% 30.31 in 10.0 mi NW 6.9 mph - N/A   Clear
7:34 PM 28.0 °F 22.8 °F 22.6 °F 80% 30.31 in 10.0 mi WNW 4.6 mph - N/A   Clear
7:53 PM 26.4 °F 20.9 °F 21.7 °F 82% 30.31 in 10.0 mi WSW 4.6 mph - N/A   Clear
8:14 PM 26.2 °F - 22.8 °F 87% 30.31 in 10.0 mi Calm Calm - N/A   Clear
8:34 PM 27.3 °F 23.4 °F 22.3 °F 81% 30.31 in 10.0 mi WSW 3.5 mph - N/A   Clear
8:53 PM 24.4 °F 20.1 °F 21.0 °F 87% 30.31 in 10.0 mi SW 3.5 mph - N/A   Clear
9:14 PM 25.9 °F 21.7 °F 21.9 °F 85% 30.31 in 10.0 mi WSW 3.5 mph - N/A   Clear
9:34 PM 23.4 °F 18.9 °F 20.3 °F 88% 30.30 in 10.0 mi WSW 3.5 mph - N/A   Clear
9:53 PM 24.1 °F - 21.6 °F 90% 30.29 in 10.0 mi Calm Calm - N/A   Clear
10:14 PM 22.1 °F 17.4 °F 19.8 °F 91% 30.28 in 10.0 mi SW 3.5 mph - N/A   Clear
10:34 PM 21.2 °F 12.6 °F 19.4 °F 93% 30.28 in 10.0 mi WSW 6.9 mph - N/A   Clear
10:53 PM 19.4 °F 11.5 °F 17.6 °F 93% 30.28 in 10.0 mi SW 5.8 mph - N/A   Clear
11:14 PM 22.3 °F 16.1 °F 20.8 °F 94% 30.28 in 10.0 mi SW 4.6 mph - N/A   Mostly Cloudy
11:34 PM 25.7 °F 19.0 °F 23.7 °F 92% 30.27 in 10.0 mi SW 5.8 mph - N/A   Overcast
11:53 PM 25.5 °F 18.7 °F 23.0 °F 90% 30.27 in 10.0 mi SSW 5.8 mph - N/A   Mostly Cloudy